Wind_Speed
6 6 6 6 5 5 6 6 6 6 6 5 5 5 6 6 6 6 6 6 6 6 7 8 8 8 9 9 10 11 11 11 11 12 12 12 13 13 14 14 14 14 14
7 6 6 6 6 6 6 6 6 6 6 5 6 6 6 6 7 7 7 7 7 8 8 9 9 8 9 9 10 10 10 11 11 11 12 13 13 14 14 14 15 15 15
6 6 6 7 6 6 6 6 6 6 6 6 6 6 7 7 7 7 8 8 8 9 9 9 9 9 9 9 10 10 10 11 11 11 12 13 14 15 15 15 15 16 16
6 6 7 7 7 7 6 6 7 7 7 7 7 7 7 7 7 8 8 9 9 9 9 10 10 10 10 10 11 11 12 12 13 13 13 14 15 15 15 15 16 16 17
7 7 7 7 7 7 7 8 8 8 8 8 8 8 8 8 9 9 10 9 10 10 10 11 11 11 11 11 12 12 13 13 14 14 14 15 15 15 16 16 17 17 18
8 8 8 8 8 8 8 8 8 8 8 8 9 9 9 9 10 10 10 10 11 11 11 12 12 12 12 13 13 13 14 15 15 16 16 16 16 16 16 16 17 18 18
9 8 8 8 8 8 8 8 9 9 9 9 9 10 10 10 10 11 11 11 12 12 12 12 13 13 13 13 14 14 15 16 16 17 17 17 17 17 17 17 17 18 18
9 9 8 9 9 8 8 9 9 10 10 10 10 10 11 11 11 12 12 12 13 13 13 13 14 13 13 14 14 15 15 16 16 17 17 17 18 18 18 18 18 17 17
10 10 10 10 10 10 9 10 10 10 11 11 11 11 12 12 12 12 13 13 13 14 14 14 14 14 14 15 15 15 15 15 16 16 17 17 17 17 18 18 17 18 18
11 10 11 11 11 11 11 11 11 12 12 12 12 12 12 13 13 13 13 14 14 14 14 14 14 15 15 15 16 16 16 16 17 17 17 17 17 17 18 18 18 18 18
11 11 12 12 12 12 12 13 13 13 13 13 13 13 13 13 13 13 14 14 14 14 14 15 15 16 16 16 16 16 16 16 17 17 17 17 17 17 17 18 18 18 18
12 12 13 13 13 13 13 13 13 14 14 15 15 15 15 15 15 15 15 15 15 15 15 15 15 16 16 16 17 17 17 17 17 17 17 17 17 17 17 18 18 18 19
14 13 13 13 13 13 13 14 14 15 16 16 16 16 16 16 16 16 16 16 17 17 16 16 16 16 17 17 17 17 17 18 18 17 17 17 17 17 18 19 19 19 19
16 15 14 14 14 14 15 15 16 16 17 17 17 17 17 17 17 17 17 17 17 17 17 17 17 17 17 17 17 17 17 17 17 17 17 17 18 18 19 19 19 19 20
16 15 16 16 16 16 16 16 16 17 17 17 17 17 17 17 17 18 18 18 18 18 18 18 18 17 17 17 17 17 17 18 18 18 18 18 19 19 19 19 19 19 20
16 17 17 17 17 17 17 18 18 18 18 17 17 17 17 17 17 18 18 18 18 18 18 18 18 18 18 18 17 17 17 18 18 18 18 18 18 19 19 20 20 20 21
18 19 19 19 19 19 19 19 19 19 18 18 18 18 18 18 19 19 19 19 19 19 18 18 18 18 18 18 18 18 18 18 19 19 19 19 19 20 20 20 21 21 22
20 20 21 21 21 21 21 21 21 21 20 20 20 19 19 20 20 20 20 20 20 19 19 19 19 19 18 19 19 19 20 20 20 19 19 20 20 20 20 20 21 22 22
22 22 23 23 22 22 22 22 22 22 21 21 21 21 21 20 21 21 21 21 20 20 20 20 20 20 20 20 20 21 21 20 20 20 20 20 20 21 21 21 21 22 22
24 24 24 24 24 24 24 24 23 22 22 22 22 22 21 21 21 21 21 21 21 21 21 21 21 21 21 21 21 22 22 21 21 21 21 22 22 22 23 23 23 23 23
25 26 26 25 25 25 25 25 24 24 23 23 23 23 23 22 22 22 21 22 22 22 22 22 22 22 22 23 23 24 23 23 23 23 23 23 24 25 25 25 24 24 25
26 27 27 27 26 26 26 25 25 25 25 25 25 24 24 24 23 23 23 23 23 23 24 23 24 24 24 25 25 25 25 25 25 25 25 25 26 26 26 27 27 26 26
27 28 28 28 28 28 27 27 26 27 26 26 26 26 26 26 25 25 25 25 25 25 26 26 26 26 27 27 28 28 27 27 27 27 27 27 27 28 28 28 28 28 27
28 28 29 29 29 29 30 30 29 29 29 28 27 27 28 27 27 27 27 27 27 27 27 28 28 29 29 29 29 29 29 29 29 29 29 29 29 29 29 29 29 29 28
30 30 30 30 30 31 31 32 31 31 31 31 30 30 29 29 29 29 29 29 29 29 29 29 29 30 30 30 30 30 30 30 30 30 31 30 30 30 30 30 30 30 30
32 32 32 31 31 31 31 32 32 32 32 32 32 32 32 32 32 31 31 31 31 31 31 31 31 32 31 31 31 31 31 32 32 31 31 31 31 32 32 32 31 31 31
Wind_Direction
285 287 287 286 288 293 292 293 295 296 300 297 293 294 292 288 283 280 278 282 280 276 275 276 272 268 264 261 261 258 260 261 261 261 259 259 258 257 256 257 258 259 261
285 285 287 288 289 292 293 293 293 293 295 294 294 295 296 293 289 284 278 278 276 277 280 277 275 271 267 265 264 263 263 265 264 261 261 262 262 259 256 258 260 260 261
286 288 291 292 291 291 291 289 291 293 294 294 292 291 293 295 294 289 284 283 281 280 279 280 276 274 271 270 268 267 266 267 267 263 263 263 263 264 259 261 260 260 261
287 291 292 291 293 293 289 291 292 291 293 291 290 291 293 294 293 289 288 286 285 284 281 280 273 269 269 270 270 269 269 269 269 266 265 267 266 266 265 265 263 262 262
284 288 288 287 289 288 289 292 291 290 292 292 289 288 291 290 290 290 288 287 285 283 281 281 275 271 269 269 271 271 270 270 271 270 271 270 268 267 267 266 265 264 264
282 283 283 284 287 289 288 288 289 292 294 293 290 290 289 288 288 289 288 284 282 282 281 279 276 272 271 271 271 271 272 271 271 271 271 270 267 266 267 267 265 264 264
278 279 280 284 286 287 285 285 287 289 291 293 294 292 289 288 288 288 289 287 283 282 282 280 278 275 273 274 272 272 274 274 274 272 270 269 267 266 268 268 266 263 264
278 276 279 286 290 292 289 289 288 288 288 290 293 292 288 286 287 287 288 288 287 284 282 279 279 278 275 276 277 278 280 278 277 274 272 274 272 270 269 267 266 264 264
274 277 281 288 293 294 291 291 290 289 288 288 289 289 287 285 285 286 286 287 286 284 280 278 278 278 278 279 278 279 279 281 281 279 276 276 275 274 273 271 269 268 267
274 278 283 285 287 289 288 289 289 288 288 288 288 287 286 286 286 286 288 289 288 284 278 277 278 279 281 284 283 282 283 283 282 280 278 277 277 275 272 272 270 270 269
273 277 279 281 285 286 286 287 287 286 287 287 287 286 285 285 286 287 289 289 289 286 282 279 279 280 281 282 283 283 284 285 284 281 279 279 278 275 273 272 271 271 272
273 276 279 281 284 285 285 285 284 284 284 285 285 284 284 285 285 285 285 284 284 283 283 282 282 283 283 281 280 281 283 284 282 281 281 280 278 276 275 274 273 273 273
274 278 280 282 285 287 287 286 285 285 285 285 284 284 284 283 284 284 285 284 282 282 281 282 282 283 284 282 280 279 281 282 282 281 280 279 278 276 277 276 275 273 273
273 276 279 282 284 287 289 288 287 287 286 285 284 284 283 282 283 283 283 283 281 281 282 282 281 281 282 283 282 278 281 283 283 281 281 280 279 277 277 277 276 274 274
275 276 278 281 283 285 287 288 288 287 286 285 284 284 284 283 283 283 282 282 283 284 285 284 282 280 280 281 281 281 280 281 282 281 282 282 281 280 279 277 276 274 275
273 276 279 282 283 284 284 285 286 286 285 284 283 283 283 284 284 283 281 281 283 284 284 283 282 280 279 281 281 280 281 282 283 283 283 284 283 282 280 277 276 275 275
274 276 277 280 282 283 284 284 284 284 284 284 283 282 282 282 283 283 282 282 281 281 281 281 281 281 279 279 278 279 280 281 282 281 282 283 284 281 280 279 277 276 277
275 275 277 278 280 281 283 285 286 285 284 283 282 281 281 282 282 283 284 282 281 280 278 278 279 280 279 278 279 280 280 281 281 281 281 281 282 282 281 280 281 279 277
273 275 276 278 279 279 281 284 285 284 284 283 281 280 281 282 282 282 282 281 279 278 277 277 277 277 278 278 279 280 281 281 281 281 281 281 281 281 281 281 282 283 281
271 274 275 277 278 279 280 282 282 281 281 281 281 281 281 281 281 281 280 279 278 277 276 276 276 277 278 278 279 279 280 280 280 281 281 281 281 281 281 282 282 284 283
271 273 275 276 278 278 279 279 279 278 278 278 278 279 280 280 280 279 279 278 277 276 275 275 275 275 276 277 278 278 278 279 279 280 281 281 280 280 280 281 281 283 284
272 273 275 275 277 278 278 278 278 278 277 277 278 278 279 279 279 279 278 277 276 276 275 275 275 276 275 276 278 277 277 278 280 280 280 280 280 280 280 280 281 283 283
273 273 273 274 275 276 277 278 277 277 277 277 277 278 278 278 278 277 277 277 276 276 275 275 276 276 276 277 277 278 277 277 280 281 281 280 280 281 281 282 282 282 282
273 274 273 273 274 274 276 277 276 276 276 277 277 277 278 278 278 277 277 277 277 276 276 276 276 277 276 276 277 277 278 278 280 281 281 280 281 280 280 280 281 281 281
274 275 275 274 274 275 276 277 277 277 276 276 277 277 277 277 277 277 277 277 278 278 276 276 277 277 277 276 277 278 278 278 279 281 282 281 281 280 280 280 279 279 279
274 275 276 277 277 277 278 279 280 279 279 277 277 277 277 277 276 277 277 277 277 277 277 278 278 278 278 278 279 278 278 278 278 279 281 281 280 280 280 279 279 279 279
Height
5841 5841 5840 5840 5839 5839 5839 5838 5838 5837 5837 5836 5836 5835 5835 5834 5834 5834 5834 5833 5833 5833 5833 5833 5833 5833 5833 5833 5834 5834 5834 5834 5835 5835 5836 5836 5836 5837 5837 5838 5838 5839 5839
5840 5839 5839 5838 5838 5837 5837 5836 5836 5836 5835 5835 5834 5834 5834 5833 5833 5832 5832 5832 5831 5831 5831 5831 5830 5830 5830 5831 5831 5831 5832 5831 5832 5832 5832 5833 5833 5833 5833 5834 5834 5835 5835
5838 5838 5837 5837 5836 5836 5835 5835 5834 5834 5834 5833 5833 5832 5832 5831 5831 5831 5830 5830 5829 5829 5829 5828 5828 5828 5828 5828 5828 5828 5829 5828 5828 5829 5829 5829 5830 5830 5830 5830 5831 5831 5831
5837 5836 5836 5835 5835 5834 5834 5833 5833 5832 5832 5831 5831 5830 5830 5829 5829 5828 5828 5827 5827 5826 5826 5826 5826 5825 5825 5825 5825 5825 5825 5825 5825 5825 5825 5826 5826 5826 5826 5826 5826 5827 5827
5835 5835 5834 5834 5833 5832 5832 5831 5831 5830 5830 5829 5829 5828 5828 5827 5827 5826 5825 5825 5824 5824 5823 5823 5823 5822 5822 5822 5822 5822 5822 5822 5822 5822 5821 5821 5821 5821 5822 5822 5822 5822 5823
5833 5833 5832 5832 5831 5831 5830 5829 5829 5828 5827 5827 5826 5826 5825 5824 5824 5823 5823 5822 5821 5821 5820 5820 5819 5819 5819 5819 5819 5818 5818 5818 5818 5818 5817 5817 5817 5817 5817 5817 5817 5817 5818
5831 5831 5830 5830 5829 5828 5828 5827 5826 5826 5825 5824 5824 5823 5822 5822 5821 5821 5820 5819 5818 5818 5817 5816 5816 5816 5815 5815 5815 5815 5814 5814 5813 5813 5813 5812 5812 5812 5812 5812 5812 5813 5813
5829 5829 5828 5827 5827 5826 5825 5824 5824 5823 5823 5822 5821 5820 5820 5819 5818 5817 5816 5816 5815 5814 5813 5813 5812 5812 5811 5811 5811 5810 5810 5809 5809 5808 5808 5807 5807 5807 5807 5807 5807 5807 5808
5827 5826 5825 5825 5824 5823 5823 5822 5821 5820 5820 5819 5818 5817 5816 5816 5815 5814 5813 5812 5811 5810 5809 5809 5808 5808 5807 5807 5806 5806 5805 5805 5804 5803 5803 5803 5802 5802 5802 5801 5802 5802 5802
5823 5823 5822 5822 5821 5821 5820 5819 5818 5817 5816 5816 5815 5814 5813 5812 5811 5810 5809 5808 5807 5806 5806 5805 5804 5804 5803 5803 5802 5802 5801 5800 5800 5799 5798 5798 5797 5797 5797 5796 5796 5797 5797
5820 5820 5819 5818 5818 5817 5816 5815 5814 5814 5813 5812 5811 5810 5809 5808 5807 5806 5805 5804 5803 5802 5801 5801 5800 5799 5799 5798 5798 5797 5796 5796 5795 5794 5793 5793 5792 5792 5791 5791 5791 5791 5791
5816 5816 5815 5815 5814 5813 5812 5811 5810 5810 5809 5808 5807 5806 5805 5804 5803 5802 5801 5800 5799 5798 5797 5796 5795 5795 5794 5793 5792 5792 5791 5791 5790 5789 5788 5787 5787 5786 5786 5786 5786 5786 5786
5812 5812 5812 5811 5810 5809 5808 5807 5806 5805 5804 5803 5802 5801 5800 5799 5798 5797 5796 5795 5794 5793 5792 5791 5790 5790 5789 5788 5787 5787 5786 5786 5785 5784 5783 5783 5782 5781 5781 5781 5781 5781 5781
5808 5808 5807 5807 5806 5805 5804 5803 5802 5801 5799 5798 5797 5796 5795 5794 5793 5792 5791 5790 5789 5788 5787 5786 5785 5784 5784 5783 5782 5782 5782 5781 5780 5779 5778 5778 5777 5777 5776 5776 5776 5776 5775
5804 5804 5803 5802 5801 5800 5799 5798 5797 5796 5794 5793 5792 5791 5790 5789 5788 5787 5786 5785 5784 5783 5782 5780 5780 5779 5779 5778 5777 5777 5776 5776 5775 5774 5773 5773 5772 5771 5770 5770 5770 5770 5770
5800 5799 5799 5798 5797 5796 5795 5793 5792 5791 5789 5788 5787 5786 5785 5784 5783 5781 5781 5780 5779 5777 5776 5775 5774 5774 5773 5773 5772 5772 5772 5771 5770 5769 5768 5767 5766 5766 5765 5765 5764 5764 5764
5795 5794 5794 5793 5792 5791 5789 5788 5787 5785 5784 5783 5782 5780 5779 5778 5777 5776 5775 5774 5773 5772 5771 5770 5769 5769 5768 5768 5767 5767 5766 5766 5765 5764 5763 5763 5762 5761 5760 5759 5758 5758 5757
5790 5789 5788 5787 5786 5785 5784 5782 5781 5780 5778 5777 5776 5775 5774 5773 5772 5771 5769 5768 5767 5766 5765 5765 5764 5763 5763 5762 5762 5761 5761 5760 5759 5759 5758 5757 5756 5755 5754 5753 5752 5751 5751
5783 5783 5782 5781 5780 5779 5777 5776 5775 5773 5772 5771 5770 5769 5768 5767 5766 5765 5763 5762 5761 5761 5760 5759 5758 5758 5757 5757 5756 5756 5755 5754 5754 5753 5752 5751 5751 5750 5748 5747 5747 5745 5744
5777 5776 5775 5774 5773 5772 5771 5770 5768 5767 5766 5765 5764 5763 5762 5761 5760 5758 5757 5756 5755 5755 5754 5754 5753 5752 5752 5751 5750 5750 5749 5748 5748 5747 5746 5745 5744 5743 5742 5741 5740 5740 5738
5769 5769 5768 5767 5766 5765 5763 5763 5761 5760 5759 5758 5757 5756 5755 5754 5753 5752 5751 5750 5749 5749 5748 5747 5747 5746 5745 5745 5744 5743 5742 5742 5741 5740 5739 5738 5737 5736 5735 5734 5734 5733 5731
5761 5760 5760 5759 5758 5757 5756 5755 5754 5753 5752 5751 5750 5749 5748 5747 5746 5745 5744 5743 5743 5742 5741 5741 5740 5739 5738 5737 5737 5736 5735 5734 5734 5733 5732 5731 5730 5729 5728 5727 5726 5725 5723
5753 5752 5752 5751 5750 5749 5748 5747 5746 5745 5744 5743 5742 5741 5740 5739 5738 5738 5737 5736 5735 5734 5734 5733 5732 5732 5731 5730 5729 5728 5727 5726 5726 5725 5724 5723 5722 5721 5720 5719 5718 5716 5715
5744 5744 5743 5742 5741 5740 5739 5738 5738 5737 5736 5735 5734 5733 5732 5731 5730 5729 5729 5728 5727 5726 5725 5725 5724 5723 5722 5722 5720 5719 5718 5718 5717 5716 5715 5714 5713 5712 5711 5710 5709 5708 5706
5735 5735 5734 5733 5732 5731 5730 5729 5728 5727 5727 5726 5725 5724 5723 5722 5721 5721 5720 5719 5718 5717 5716 5716 5715 5714 5713 5712 5711 5710 5710 5709 5708 5707 5706 5705 5704 5703 5702 5701 5700 5698 5697
5726 5725 5724 5723 5722 5721 5721 5720 5718 5718 5717 5716 5715 5714 5713 5713 5712 5711 5710 5709 5708 5707 5706 5706 5705 5704 5703 5703 5702 5701 5700 5699 5698 5697 5696 5695 5694 5693 5692 5691 5690 5689 5688